Forum sur les Sports Mécaniques
 
AccueilGalerieRechercherS'enregistrerConnexion

Partagez
 

 Dakar : Argentina - Chile 2010

Aller en bas 
Aller à la page : Précédent  1, 2
AuteurMessage
CSC_3187
Admin
Admin
CSC_3187

Masculin Nombre de messages : 1659
Age : 32
Date d'inscription : 23/11/2008

Dakar : Argentina - Chile 2010 - Page 2 Empty
MessageSujet: Re: Dakar : Argentina - Chile 2010   Dakar : Argentina - Chile 2010 - Page 2 EmptyLun 11 Jan - 2:01

A mi-Dakar, on a déjà une bonne idée de la hiérarchie finale. Desprès vainqueur sauf incidents, seul Coma et éventuellement Casteu auraient pu le concurrencer à la régulière. Volkswagen également, reste à savoir quel pilote du trio. Peterhansel avait nettement les moyens de triompher, mais il reste en embuscade pour un éventuel podium s'il y a de la casse dans le trio de tête.

J'ajouterais la phrase du jour : Les Patronelli sont impressionnants, vue presque à chaque étape. Razz
Revenir en haut Aller en bas
vino_93
Modérateur
Modérateur
vino_93

Masculin Nombre de messages : 6378
Age : 26
Localisation : proche Beauvais
Date d'inscription : 15/08/2008

Dakar : Argentina - Chile 2010 - Page 2 Empty
MessageSujet: Re: Dakar : Argentina - Chile 2010   Dakar : Argentina - Chile 2010 - Page 2 EmptyLun 11 Jan - 20:30

Mr.Green

_________________
Dakar : Argentina - Chile 2010 - Page 2 Bannie10
Revenir en haut Aller en bas
vino_93
Modérateur
Modérateur
vino_93

Masculin Nombre de messages : 6378
Age : 26
Localisation : proche Beauvais
Date d'inscription : 15/08/2008

Dakar : Argentina - Chile 2010 - Page 2 Empty
MessageSujet: Re: Dakar : Argentina - Chile 2010   Dakar : Argentina - Chile 2010 - Page 2 EmptyMer 13 Jan - 19:40

Lundi :
CLASSEMENT ÉTAPE MOTO
Pos. N° Nom Marque Temps Écart Pénalité
1 002 DESPRES (FRA) KTM 02:12:30 00:00:00
2 001 COMA (ESP) KTM 02:12:30 00:00:00
3 009 LOPEZ CONTARDO (CHL) APRILIA 02:13:44 00:01:14
4 004 ULLEVALSETER (NOR) KTM 02:13:53 00:01:23
5 014 DUCLOS (FRA) KTM 02:15:45 00:03:15
6 005 RODRIGUES (PRT) YAMAHA 02:16:03 00:03:33
7 016 PAIN (FRA) YAMAHA 02:16:39 00:04:09
8 011 PRZYGONSKI (POL) KTM 02:16:55 00:04:25
9 019 FARIA (PRT) KTM 02:22:18 00:09:48
10 008 VERHOEVEN (NLD) BMW 02:22:37 00:10:07
11 023 BERGLUND (SWE) KTM 02:22:59 00:10:29
12 024 STREET (USA) KTM 02:23:15 00:10:45
13 012 FRETIGNE (FRA) YAMAHA 02:25:45 00:13:15 10:00
14 007 KNUIMAN (NLD) KTM 02:28:27 00:15:57
15 118 KREJCI (CZE) YAMAHA 02:28:28 00:15:58
16 034 PEDRERO GARCIA (ESP) KTM 02:28:31 00:16:01
17 048 LIEFHEBBER (NLD) KTM 02:28:46 00:16:16
18 041 PROHENS (CHL) HONDA 02:29:00 00:16:30
19 018 CZACHOR (POL) KTM 02:30:30 00:18:00
20 128 SVITKO (SVK) KTM 02:32:33 00:20:03

CLASSEMENT ÉTAPE QUAD
Pos. N° Nom Marque Temps Écart Pénalité
1 258 DECLERCK (FRA) POLARIS 02:55:30 00:00:00
2 277 PATRONELLI (ARG) YAMAHA 02:57:03 00:01:33
3 251 PATRONELLI (ARG) YAMAHA 02:57:17 00:01:47
4 255 HALPERN (ARG) YAMAHA 03:17:53 00:22:23
5 254 BRAZINA (CZE) POLARIS 03:19:32 00:24:02
6 252 SONIK (POL) YAMAHA 03:23:22 00:27:52
7 264 AUERT (FRA) CAN-AM 03:26:38 00:31:08
8 273 HANSEN (ARG) POLARIS 03:43:15 00:47:45
9 267 MAZZUCCO (ARG) CAN-AM 03:43:19 00:47:49
10 260 GRAUE (ARG) CAN-AM 03:48:39 00:53:09

CLASSEMENT ÉTAPE AUTO
Pos. N° Nom Marque Temps Écart Pénalité
1 306 AL-ATTIYAH (QAT) GOTTSCHALK (DEU) VOLKSWAGEN 01:59:18 00:00:00
2 303 SAINZ (ESP) CRUZ (ESP) VOLKSWAGEN 02:05:27 00:06:09
3 300 DE VILLIERS (ZAF) VON ZITZEWITZ (DEU) VOLKSWAGEN 02:07:06 00:07:48
4 307 CHICHERIT (FRA) THOERNER (CHE) BMW 02:09:41 00:10:23
5 305 MILLER (USA) PITCHFORD (ZAF) VOLKSWAGEN 02:10:16 00:10:58
6 301 PETERHANSEL (FRA) COTTRET (FRA) BMW 02:16:54 00:17:36
7 318 MISSLIN (FRA) POLATO (FRA) MITSUBISHI 02:19:22 00:20:04
8 310 NOVITSKIY (RUS) SCHULZ (DEU) BMW 02:19:43 00:20:25
9 314 SOUSA (PRT) BAUMEL (FRA) MITSUBISHI 02:20:31 00:21:13
10 311 TERRANOVA (ARG) MAIMON (FRA) MITSUBISHI 02:29:36 00:30:18
11 332 BARBOSA (PRT) RAMALHO (PRT) MITSUBISHI 02:32:48 00:33:30
12 302 GORDON (USA) GRIDER (USA) HUMMER 02:38:23 00:39:05
13 323 ERRANDONEA (AND) GARCIN (FRA) SMG 02:38:26 00:39:08
14 325 HENRARD (BEL) BEGUIN (BEL) VOLKSWAGEN 02:38:40 00:39:22
15 315 KAHLE (DEU) SCHÜNEMANN (DEU) Fast - Speed 02:40:55 00:41:37
16 336 LEAL DOS SANTOS (PRT) FIUZA (PRT) BMW 02:46:53 00:47:35
17 321 DE AZEVEDO (BRA) CAVASSIN (BRA) MITSUBISHI 03:09:55 01:10:37
18 322 SPINELLI (BRA) PALMEIRO (PRT) MITSUBISHI 03:16:57 01:17:39
19 383 JIANG (CHN) BARTHOLOME (BEL) CHERY 03:24:56 01:25:38
20 339 FOJ (ESP) JATON (ARG) TOYOTA 03:41:59 01:42:41

CLASSEMENT ÉTAPE CAMION
Pos. N° Nom Marque Temps Écart Pénalité
1 500 KABIROV (RUS) BELYAEV (RUS) MOKEEV (RUS) KAMAZ 02:32:20 00:00:00
2 501 CHAGIN (RUS) SAVOSTIN (RUS) NIKOLAEV (RUS) KAMAZ 02:37:01 00:04:41
3 507 ADUA (FRA) RODEWALD (POL) TORRALLARDONA (ESP) IVECO 02:47:00 00:14:40
4 505 MARDEEV (RUS) MIZYUKAEV (RUS) KARGINOV (RUS) KAMAZ 02:50:25 00:18:05
5 508 VAN VLIET (NLD) VAANHOLT (NLD) VAN VEENENDAAL (NLD) GINAF 03:42:30 01:10:10
6 503 VAN GINKEL (NLD) DE ROOIJ (NLD) TIJSTERMAN (NLD) GINAF 03:55:57 01:23:37
7 506 MACIK (CZE) KALINA (CZE) BERVIC (CZE) LIAZ 04:13:24 01:41:04
8 514 SUGAWARA (JPN) SUZUKI (JPN) HINO 04:35:18 02:02:58
9 525 VAN GINKEL (NLD) BRUINSMA (NLD) VOGELAAR (NLD) GINAF 04:36:50 02:04:30
10 517 BORRERO GOMEZ (ESP) CAAMAÑO (ESP) BORRERO (ESP) MAN 04:52:12 02:19:52

mardi :
CLASSEMENT ÉTAPE MOTO
Pos. N° Nom Marque Temps Écart Pénalité
1 001 COMA (ESP) KTM 03:10:43 00:00:00
2 012 FRETIGNE (FRA) YAMAHA 03:12:49 00:02:06
3 005 RODRIGUES (PRT) YAMAHA 03:13:19 00:02:36
4 019 FARIA (PRT) KTM 03:14:39 00:03:56
5 009 LOPEZ CONTARDO (CHL) APRILIA 03:15:40 00:04:57
6 002 DESPRES (FRA) KTM 03:17:08 00:06:25
7 016 PAIN (FRA) YAMAHA 03:18:01 00:07:18
8 004 ULLEVALSETER (NOR) KTM 03:18:03 00:07:20
9 024 STREET (USA) KTM 03:18:04 00:07:21
10 014 DUCLOS (FRA) KTM 03:18:59 00:08:16
11 008 VERHOEVEN (NLD) BMW 03:20:26 00:09:43
12 011 PRZYGONSKI (POL) KTM 03:22:05 00:11:22
13 034 PEDRERO GARCIA (ESP) KTM 03:22:58 00:12:15
14 007 KNUIMAN (NLD) KTM 03:25:28 00:14:45
15 066 LORMAND (FRA) YAMAHA 03:26:30 00:15:47
16 128 SVITKO (SVK) KTM 03:27:33 00:16:50
17 035 CECI (ITA) APRILIA 03:27:50 00:17:07
18 038 VILLARRUBIA (ESP) YAMAHA 03:28:00 00:17:17
19 043 ZANOTTI (MAF) APRILIA 03:28:35 00:17:52
20 050 PELLICER (ESP) YAMAHA 03:28:57 00:18:14

CLASSEMENT ÉTAPE QUAD
Pos. N° Nom Marque Temps Écart Pénalité
1 256 GONZALEZ COROMINAS (ESP) YAMAHA 03:33:16 00:00:00 02:00
2 251 PATRONELLI (ARG) YAMAHA 03:39:43 00:06:27
3 255 HALPERN (ARG) YAMAHA 03:40:24 00:07:08
4 277 PATRONELLI (ARG) YAMAHA 03:40:57 00:07:41
5 260 GRAUE (ARG) CAN-AM 03:49:35 00:16:19
6 252 SONIK (POL) YAMAHA 03:51:27 00:18:11
7 264 AUERT (FRA) CAN-AM 03:59:27 00:26:11
8 254 BRAZINA (CZE) POLARIS 04:00:24 00:27:08
9 258 DECLERCK (FRA) POLARIS 04:05:57 00:32:41
10 271 ESTANGUET (ARG) CAN-AM 04:17:16 00:44:00

CLASSEMENT ÉTAPE AUTO
Pos. N° Nom Marque Temps Écart Pénalité
1 303 SAINZ (ESP) CRUZ (ESP) VOLKSWAGEN 03:01:05 00:00:00
2 301 PETERHANSEL (FRA) COTTRET (FRA) BMW 03:01:33 00:00:28
3 305 MILLER (USA) PITCHFORD (ZAF) VOLKSWAGEN 03:02:07 00:01:02
4 306 AL-ATTIYAH (QAT) GOTTSCHALK (DEU) VOLKSWAGEN 03:02:45 00:01:40
5 307 CHICHERIT (FRA) THOERNER (CHE) BMW 03:03:37 00:02:32
6 311 TERRANOVA (ARG) MAIMON (FRA) MITSUBISHI 03:04:47 00:03:42
7 332 BARBOSA (PRT) RAMALHO (PRT) MITSUBISHI 03:08:48 00:07:43
8 322 SPINELLI (BRA) PALMEIRO (PRT) MITSUBISHI 03:10:31 00:09:26
9 302 GORDON (USA) GRIDER (USA) HUMMER 03:10:41 00:09:36
10 314 SOUSA (PRT) BAUMEL (FRA) MITSUBISHI 03:10:43 00:09:38
11 300 DE VILLIERS (ZAF) VON ZITZEWITZ (DEU) VOLKSWAGEN 03:10:50 00:09:45
12 336 LEAL DOS SANTOS (PRT) FIUZA (PRT) BMW 03:17:09 00:16:04
13 318 MISSLIN (FRA) POLATO (FRA) MITSUBISHI 03:19:13 00:18:08
14 317 VAN DEIJNE (NLD) ROSEGAAR (NLD) MITSUBISHI 03:20:36 00:19:31
15 310 NOVITSKIY (RUS) SCHULZ (DEU) BMW 03:20:40 00:19:35
16 321 DE AZEVEDO (BRA) CAVASSIN (BRA) MITSUBISHI 03:21:15 00:20:10
17 335 WALLENTHEIM (SWE) OHLSSON (SWE) ISUZU 03:27:17 00:26:12
18 337 VAN LOON (NLD) VERHOEF (NLD) MITSUBISHI 03:28:31 00:27:26
19 341 MITSUHASHI (JPN) CATTARELLI (FRA) TOYOTA 03:29:15 00:28:10
20 339 FOJ (ESP) JATON (ARG) TOYOTA 03:32:30 00:31:25

CLASSEMENT ÉTAPE CAMION
Pos. N° Nom Marque Temps Écart Pénalité
1 501 CHAGIN (RUS) SAVOSTIN (RUS) NIKOLAEV (RUS) KAMAZ 03:44:23 00:00:00
2 500 KABIROV (RUS) BELYAEV (RUS) MOKEEV (RUS) KAMAZ 03:45:47 00:01:24
3 507 ADUA (FRA) RODEWALD (POL) TORRALLARDONA (ESP) IVECO 03:46:01 00:01:38
4 503 VAN GINKEL (NLD) DE ROOIJ (NLD) TIJSTERMAN (NLD) GINAF 03:58:37 00:14:14
5 508 VAN VLIET (NLD) VAANHOLT (NLD) VAN VEENENDAAL (NLD) GINAF 03:58:58 00:14:35
6 506 MACIK (CZE) KALINA (CZE) BERVIC (CZE) LIAZ 03:59:47 00:15:24
7 545 KOLOMY (CZE) ZBYNEK (CZE) KILIÁN (CZE) TATRA 04:00:22 00:15:59
8 517 BORRERO GOMEZ (ESP) CAAMAÑO (ESP) BORRERO (ESP) MAN 04:04:10 00:19:47
9 511 JUVANTENY (ESP) CRIADO (ESP) ROMAN (ESP) MAN 04:04:40 00:20:17
10 518 CLAUDIO (ITA) PAOLO (ITA) GIULIO (ITA) GINAF 04:10:26 00:26:03

Général :
CLASSEMENT GÉNÉRAL MOTO
Pos. N° Nom Marque Temps Écart Pénalité
1 002 DESPRES (FRA) KTM 39:15:59 00:00:00
2 004 ULLEVALSETER (NOR) KTM 40:38:48 01:22:49
3 009 LOPEZ CONTARDO (CHL) APRILIA 40:40:06 01:24:07
4 005 RODRIGUES (PRT) YAMAHA 40:40:58 01:24:59
5 014 DUCLOS (FRA) KTM 41:13:34 01:57:35
6 012 FRETIGNE (FRA) YAMAHA 41:17:28 02:01:29
7 024 STREET (USA) KTM 41:56:12 02:40:13
8 016 PAIN (FRA) YAMAHA 42:03:00 02:47:01
9 011 PRZYGONSKI (POL) KTM 42:27:15 03:11:16
10 034 PEDRERO GARCIA (ESP) KTM 42:28:05 03:12:06 02:00
11 023 BERGLUND (SWE) KTM 42:42:32 03:26:33 05:00
12 019 FARIA (PRT) KTM 43:22:51 04:06:52
13 050 PELLICER (ESP) YAMAHA 43:52:42 04:36:43
14 128 SVITKO (SVK) KTM 44:13:33 04:57:34
15 035 CECI (ITA) APRILIA 44:28:28 05:12:29
16 018 CZACHOR (POL) KTM 44:49:26 05:33:27
17 001 COMA (ESP) KTM 46:10:23 06:54:24 06:22:00
18 041 PROHENS (CHL) HONDA 46:11:54 06:55:55
19 156 VERHOESTRAETE (COG) KTM 46:52:16 07:36:17 04:00
20 007 KNUIMAN (NLD) KTM 47:00:15 07:44:16 30:00

CLASSEMENT GÉNÉRAL QUAD
Pos. N° Nom Marque Temps Écart Pénalité
1 251 PATRONELLI (ARG) YAMAHA 49:03:22 00:00:00
2 277 PATRONELLI (ARG) YAMAHA 51:27:43 02:24:21 05:00
3 256 GONZALEZ COROMINAS (ESP) YAMAHA 53:16:58 04:13:36 03:00
4 252 SONIK (POL) YAMAHA 55:35:17 06:31:55 01:08:00
5 258 DECLERCK (FRA) POLARIS 55:40:54 06:37:32
6 255 HALPERN (ARG) YAMAHA 58:21:49 09:18:27 03:00:00
7 260 GRAUE (ARG) CAN-AM 61:11:18 12:07:56 03:00
8 264 AUERT (FRA) CAN-AM 61:23:54 12:20:32 01:53:00
9 254 BRAZINA (CZE) POLARIS 63:01:53 13:58:31 04:00:00
10 267 MAZZUCCO (ARG) CAN-AM 68:55:03 19:51:41 03:00

CLASSEMENT GÉNÉRAL AUTO
Pos. N° Nom Marque Temps Écart Pénalité
1 303 SAINZ (ESP) CRUZ (ESP) VOLKSWAGEN 36:34:45 00:00:00
2 306 AL-ATTIYAH (QAT) GOTTSCHALK (DEU) VOLKSWAGEN 36:44:51 00:10:06
3 305 MILLER (USA) PITCHFORD (ZAF) VOLKSWAGEN 37:03:04 00:28:19
4 301 PETERHANSEL (FRA) COTTRET (FRA) BMW 38:49:05 02:14:20
5 307 CHICHERIT (FRA) THOERNER (CHE) BMW 39:05:44 02:30:59
6 314 SOUSA (PRT) BAUMEL (FRA) MITSUBISHI 40:28:50 03:54:05
7 300 DE VILLIERS (ZAF) VON ZITZEWITZ (DEU) VOLKSWAGEN 41:20:58 04:46:13
8 322 SPINELLI (BRA) PALMEIRO (PRT) MITSUBISHI 41:59:53 05:25:08
9 311 TERRANOVA (ARG) MAIMON (FRA) MITSUBISHI 42:15:16 05:40:31
10 302 GORDON (USA) GRIDER (USA) HUMMER 42:18:41 05:43:56
11 310 NOVITSKIY (RUS) SCHULZ (DEU) BMW 42:25:18 05:50:33
12 332 BARBOSA (PRT) RAMALHO (PRT) MITSUBISHI 42:47:04 06:12:19 01:00
13 318 MISSLIN (FRA) POLATO (FRA) MITSUBISHI 43:10:16 06:35:31
14 336 LEAL DOS SANTOS (PRT) FIUZA (PRT) BMW 43:28:53 06:54:08
15 325 HENRARD (BEL) BEGUIN (BEL) VOLKSWAGEN 44:34:11 07:59:26
16 323 ERRANDONEA (AND) GARCIN (FRA) SMG 46:59:13 10:24:28
17 317 VAN DEIJNE (NLD) ROSEGAAR (NLD) MITSUBISHI 48:48:47 12:14:02
18 341 MITSUHASHI (JPN) CATTARELLI (FRA) TOYOTA 50:44:40 14:09:55
19 315 KAHLE (DEU) SCHÜNEMANN (DEU) Fast - Speed 50:54:41 14:19:56
20 330 SIREYJOL (FRA) WISSMANNS (FRA) BOWLER 53:54:21 17:19:36

CLASSEMENT GÉNÉRAL CAMION
Pos. N° Nom Marque Temps Écart Pénalité
1 501 CHAGIN (RUS) SAVOSTIN (RUS) NIKOLAEV (RUS) KAMAZ 42:09:13 00:00:00
2 500 KABIROV (RUS) BELYAEV (RUS) MOKEEV (RUS) KAMAZ 43:22:08 01:12:55
3 508 VAN VLIET (NLD) VAANHOLT (NLD) VAN VEENENDAAL (NLD) GINAF 50:45:01 08:35:48
4 506 MACIK (CZE) KALINA (CZE) BERVIC (CZE) LIAZ 52:32:02 10:22:49
5 503 VAN GINKEL (NLD) DE ROOIJ (NLD) TIJSTERMAN (NLD) GINAF 54:52:05 12:42:52
6 514 SUGAWARA (JPN) SUZUKI (JPN) HINO 56:09:47 14:00:34 02:00
7 505 MARDEEV (RUS) MIZYUKAEV (RUS) KARGINOV (RUS) KAMAZ 56:17:50 14:08:37 05:00:00
8 518 CLAUDIO (ITA) PAOLO (ITA) GIULIO (ITA) GINAF 59:31:20 17:22:07 02:00
9 523 OLIVERAS (AND) CAMARA ORDONEZ (ESP) CAMARA (ESP) MERCEDES 62:11:31 20:02:18 03:00
10 511 JUVANTENY (ESP) CRIADO (ESP) ROMAN (ESP) MAN 62:20:47 20:11:34

_________________
Dakar : Argentina - Chile 2010 - Page 2 Bannie10
Revenir en haut Aller en bas
Contenu sponsorisé




Dakar : Argentina - Chile 2010 - Page 2 Empty
MessageSujet: Re: Dakar : Argentina - Chile 2010   Dakar : Argentina - Chile 2010 - Page 2 Empty

Revenir en haut Aller en bas
 
Dakar : Argentina - Chile 2010
Revenir en haut 
Page 2 sur 2Aller à la page : Précédent  1, 2
 Sujets similaires
-
» "Allègre" 2010 à Dole (Jura), du 17 au 24 juillet 2010
» [10 octobre 2010] - Rallye VTT de Choisel
» H Cup 2010 / 2011
» 24H INSA 2010 - 21-23 mai
» Paris-Mantes (54km): le 30 janvier 2010

Permission de ce forum:Vous ne pouvez pas répondre aux sujets dans ce forum
Mechanical Sports Forum :: Automobiles :: Autres :: Rallye Raid-
Sauter vers: